User: anonymous
Location: Caltech
(34.1382°N, 118.1253°W)
Time: 12:48:51
(UTC-07:00)
Language:

ATLAS 5 CENTAUR R/B - Orbit

View from above orbital plane
View from above orbital plane
View from above satellite
View from above satellite

Ground track
Ground track

The orbit data is extracted from the following two-line orbital elements,

1 30778U 07006G   14234.98403845  .00041768  00000-0  54494-3 0   629
2 30778 035.6831 054.7219 0010010 074.9212 060.9760 15.57588579415310
Epoch (UTC): 22 August 2014 23:37:00
Eccentricity: 0.0010010
inclination: 35.6831°
perigee height: 388 km
apogee height: 401 km
right ascension of ascending node: 54.7219°
argument of perigee: 74.9212°
revolutions per day: 15.57588579
mean anomaly at epoch: 60.9760°
orbit number at epoch: 41531

The dashed part of the orbit path shows where the satellite is in the earth's shadow,  

DLR